Home > Weather > Wichita Falls > Past weeks

Flag for USA Weather for the Past 2 Weeks in Wichita Falls, Texas, USA

Now
61 °F

Partly sunny.


Feels Like: 61 °F
Forecast: 53 / 82 °F
Wind: 7 mph from South

Location: Wichita Falls - Sheppard Air Force Base

Current Time: May 3, 2016 at 7:46:43 PM

Latest Report: May 3, 2016 at 6:52 PM


Visibility: 10 mi

Pressure: 30.02 "Hg

Humidity: 87%

Dew Point: 57 °F

Location of Wichita FallsLocation

Historic Weather in Wichita Falls — Graph

°F

Wichita Falls Temperature Yesterday

Maximum temperature yesterday: 68 °F (at 4:52 PM)
Minimum temperature yesterday: 47 °F (at 5:52 AM)
Average temperature yesterday: 56 °F

High & Low Weather Summary for the Past Weeks

 TemperatureHumidityPressure
High89 °F (Apr 25, 4:52 PM)97% (Apr 19, 9:00 AM)30.21 "Hg (Apr 19, 9:00 AM)
Low46 °F (May 3, 5:52 AM)31% (Apr 22, 2:52 PM)29.43 "Hg (Apr 26, 5:52 PM)
Average65 °F71%29.88 "Hg
* Reported Apr 18 6:52 PM — May 3 6:52 PM, Wichita Falls, Weather by CustomWeather, © 2016

Note: Actual official high and low records may vary slightly from our data, if they occured in-between our weather recording intervals... More about our weather records

Advertising

Wichita Falls Weather History for the Previous 24 Hours

Scroll right to see more
 ConditionsComfort  
Time TempWeatherWind HumidityBarometerVisibility
6:52 PM
Tue, May 3
61 °FPartly sunny.7 mph87%30.02 "Hg10 mi
5:52 PM60 °FMostly cloudy.5 mph86%30.05 "Hg10 mi
4:52 PM60 °FHeavy rain. Mostly cloudy.33 mph80%30.06 "Hg2 mi
3:52 PM74 °FPassing clouds.5 mph36%30.01 "Hg10 mi
2:52 PM73 °FPassing clouds.No wind38%30.03 "Hg10 mi
1:52 PM70 °FPassing clouds.No wind42%30.06 "Hg10 mi
12:52 PM70 °FSunny.7 mph44%30.09 "Hg10 mi
11:52 AM67 °FPassing clouds.3 mph47%30.11 "Hg10 mi
10:52 AM65 °FSunny.8 mph51%30.12 "Hg10 mi
9:52 AM61 °FSunny.7 mph60%30.13 "Hg10 mi
8:52 AM56 °FSunny.8 mph77%30.13 "Hg10 mi
7:52 AM51 °FSunny.9 mph86%30.11 "Hg10 mi
6:52 AM48 °FClear.8 mph86%30.09 "Hg10 mi
5:52 AM46 °FClear.6 mph89%30.08 "Hg10 mi
4:52 AM47 °FClear.7 mph86%30.07 "Hg10 mi
3:52 AM48 °FClear.7 mph86%30.07 "Hg10 mi
2:52 AM50 °FClear.7 mph83%30.09 "Hg10 mi
1:52 AM49 °FClear.6 mph84%30.10 "Hg10 mi
12:52 AM51 °FClear.3 mph80%30.10 "Hg10 mi
11:52 PM
Mon, May 2
51 °FClear.3 mph83%30.11 "Hg10 mi
10:52 PM53 °FClear.5 mph77%30.12 "Hg10 mi
9:52 PM55 °FClear.8 mph72%30.11 "Hg10 mi
8:52 PM58 °FSunny.6 mph62%30.09 "Hg10 mi
7:52 PM62 °FPassing clouds.6 mph56%30.08 "Hg10 mi
Weather by CustomWeather, © 2016

See weather overviewHow to use our weather pages